Location: Dompnac
(44.5644°N, 4.1026°E)
Time: 13:17:48
(UTC+00:00)

Cosmos 2026 Rocket - Pass Details

Date: 26 January 2021
Orbit: 940 x 1000 km, 82.9° (Epoch: 28 February)

Event Time Altitude Azimuth Distance (km) Brightness Sun altitude
Rises 20:11:00 0° 244° (WSW) 3,626 7.6 -36.7°
Reaches altitude 10° 20:14:58 10° 270° (W) 2,699 7.0 -37.4°
Maximum altitude 20:17:57 14° 299° (WNW) 2,449 6.7 -37.9°
Drops below altitude 10° 20:20:58 10° 328° (NNW) 2,727 6.7 -38.4°
Sets 20:25:03 0° 354° (N) 3,694 7.2 -39.1°
